Location: Zagreb
(45.8000°N, 16.0000°E)
Time: 05:06:29
(UTC+02:00)

Vanguard 2 Rocket - Pass Details

Date: 12 August 2022
Orbit: 553 x 3323 km, 32.9° (Epoch: 30 September)

Event Time Altitude Azimuth Distance (km) Brightness Sun altitude
Rises 20:44:32 0° 277° (W) 7,289 13.0 -6.4°
Reaches altitude 10° 20:50:35 10° 268° (W) 6,118 12.1 -7.3°
Maximum altitude 21:04:50 29° 219° (SW) 3,948 10.2 -9.4°
Drops below altitude 10° 21:15:08 10° 165° (SSE) 4,356 9.9 -10.9°
Enters shadow 21:17:04 - 158° (SSE) 4,675 10.0 -11.2°
